Lexington Weather

Lexington, Massachusetts, USA

67°F
9/23/2021 3:56am 
  • Lexington Conditions: Few Clouds
  • Temperature: 66.6°F / 19.2°CWarmer 0.4°F than last hour.
  • Dew Point: 65.3°FIncreased 0.4°Fsince last hour.
  • Relative Humidity: 96
  • Wind: Calm, 10-min avg: Calm, gust: 3 mph
  • Barometer: 30.04 in Steady
  • Visibility: 10 miles
  • Rain Today: 0.00 in
  •   

Regional Weather Roundup
for Boston / Norton, MA

        
000
ASUS41 KBOX 221004
RWRBOX

REGIONAL WEATHER ROUNDUP
NATIONAL WEATHER SERVICE BOSTON/NORTON MA
600 AM EDT WED SEP 22 2021

NOTE:  "FAIR" INDICATES FEW OR NO CLOUDS BELOW 12,000 FEET WITH NO 
SIGNIFICANT WEATHER AND/OR OBSTRUCTIONS TO VISIBILITY.

MAZALL-221100-
EASTERN MASSACHUSETTS
  
CITY           SKY/WX    TMP DP  RH WIND       PRES   REMARKS
BOSTON         MOCLDY    68  64  87 SE5       30.23F                  
BEVERLY        CLEAR     65  64  97 SE3       30.23F                  
LAWRENCE       CLOUDY    67  65  93 SE3       30.25S                  
BEDFORD        CLOUDY    67  66  97 S3        30.22S                  
BLUE HILL      NOT AVBL                                               
NORWOOD        CLEAR     67  64  90 SE5       30.23F                  
MARSHFIELD     MOCLDY    66  64  94 CALM      30.24F                  
PLYMOUTH       CLEAR     66  64  93 VRB3      30.24F                  
TAUNTON        MOCLDY    67  65  93 SE5       30.23F                  
NEW BEDFORD    CLOUDY    70  66  87 SE7       30.23F                  
$$

MAZALL-221100-
CAPE COD AND THE ISLANDS
  
CITY           SKY/WX    TMP DP  RH WIND       PRES   REMARKS
FALMOUTH       MOCLDY    66  64  94 SE8       30.25F                  
HYANNIS        CLEAR     68  65  90 SE5       30.24F                  
CHATHAM        CLOUDY    66  61  84 SE6       30.27F                  
PROVINCETOWN   PTCLDY    65  63  93 SE7       30.26F                  
NANTUCKET      PTCLDY    68  64  87 SE10      30.25F                  
MARTHAS VNYRD  CLOUDY    69  66  90 SE8       30.24F                  
$$
 
MAZALL-221100-
CENTRAL AND WESTERN MASSACHUSETTS
  
CITY           SKY/WX    TMP DP  RH WIND       PRES   REMARKS
WORCESTER      CLOUDY    65  65 100 S7        30.24F                  
FITCHBURG      FOG       63  62  97 CALM      30.23F VSB 1/2          
ORANGE         CLOUDY    62  61  96 CALM      30.22F                  
SPRINGFIELD    NOT AVBL                                               
WESTFIELD      CLOUDY    63  63 100 CALM      30.19F FOG              
NORTH ADAMS    MOCLDY    62  60  93 W3        30.18F                  
PITTSFIELD     CLOUDY    66  64  93 SE12G20   30.18F                  
$$
 
RIZALL-221100-
RHODE ISLAND
  
CITY           SKY/WX    TMP DP  RH WIND       PRES   REMARKS
PROVIDENCE     CLOUDY    70  68  93 CALM      30.23F                  
NEWPORT        CLOUDY    69  67  93 SE9       30.22F                  
BLOCK ISLAND   CLOUDY    70  67  90 SE10      30.21F                  
SMITHFIELD     CLOUDY    67  67 100 SE5       30.24F                  
WESTERLY       CLOUDY    68  68 100 E5        30.21F                  
$$
 
CTZALL-221100-
CONNECTICUT
  
CITY           SKY/WX    TMP DP  RH WIND       PRES   REMARKS
BRADLEY INTL   CLOUDY    64  63  96 CALM      30.20F                  
HARTFORD       MOCLDY    67  62  84 CALM      30.18F                  
BRIDGEPORT     CLOUDY    73  69  87 SE8       30.17F                  
DANBURY        CLOUDY    72  68  87 SE6       30.18F                  
GROTON         CLOUDY    71  68  90 E8        30.19F                  
NEW HAVEN      CLOUDY    74  71  91 E7        30.18F                  
CHESTER        FOG       68  68 100 CALM      30.20F VSB 1/2          
MERIDEN        CLOUDY    66  63  90 CALM      30.18F                  
WILLIMANTIC    MOCLDY    64  63  96 CALM      30.22S                  
OXFORD         CLOUDY    69  68  96 SE8       30.20F FOG              
$$

MEZ002-015-021-024-NHZ003-005-008-011-012-014-VTZ005-008-221100-
NORTHERN NEW ENGLAND
  
CITY           SKY/WX    TMP DP  RH WIND       PRES   REMARKS
PORTLAND ME    CLOUDY    65  64  97 S3        30.25S                  
BANGOR ME      CLOUDY    62  61  96 S5        30.27S                  
CONCORD NH     FOG       62  61  96 CALM      30.23F VSB 3/4          
MANCHESTER NH  CLOUDY    67  63  87 SW6       30.21F FOG              
NASHUA NH      CLOUDY    63  63 100 CALM      30.23F FOG              
PORTSMOUTH NH  CLOUDY    66  64  94 CALM      30.24F FOG              
JAFFREY NH     CLOUDY    67  67 100 S5        30.23F                  
KEENE NH       LGT RAIN  60  59  96 CALM      30.21F                  
BURLINGTON VT  PTCLDY    63  57  81 VRB3      30.15S                  
MT. WASHINGTON LGT RAIN  48  48 100 SW44G51     N/A  VSB 0            
$$

NYZ052-076-221100-
EASTERN NEW YORK
  
CITY           SKY/WX    TMP DP  RH WIND       PRES   REMARKS
ALBANY         DRIZZLE   62  62 100 SE6       30.15F                  
NEW YORK CITY  CLOUDY    73  69  87 SE8       30.14F                  
$$
 
ANZALL-221100-
MARINE OBSERVATIONS
  
STATION/POSITION TIME  TEMP    WIND        PRES    VSBY  WAVE
                       AIR SEA DIR/SP/G                  HT/PER
                 (UTC) (F)     (DEG/KT/KT) (MB)    (MI)  (FT/S)
BOSTON BUOY      0940      65  170/ 10/ 14 1024.4F
BUZZARDS BAY     0900          130/ 16/ 17 1024.7F
NANTUCKET SOUND  0940   70 71  140/ 12/ 14 1024.3S
MASS BAY-STELLWA 0904   67     190/  8/ 10 1024.1R  1 7/8  2/ 5
ISLE OF SHOALS   0900   66     170/  8/  9 1023.8F
S OF BLOCK IS    0926      70                N/A           4/12
$$

......................KEY.........................
  SKY/WX - SKY CONDITION/PRESENT WEATHER
  TMP    - TEMPERATURE IN FAHRENHEIT
  DWPT   - DEWPOINT IN FAHRENHEIT
  RH     - RELATIVE HUMIDITY IN PERCENT
  WIND   - DIRECTION AND SPEED IN MPH
  PRES   - MEAN SEA LEVEL PRESSURE IN INCHES OF HG
  WCI    - WIND CHILL INDEX
  VSB    - VISIBILITY IN MILES
  HX     - HEAT INDEX
  TC     - TEMPERATURE IN CELSIUS
  VRB    - VARIABLE WIND DIRECTION
  N/A    - NOT AVAILABLE
  
      

Other recent Regional Weather Roundups

Thu Sep 23, 3:04am

Thu Sep 23, 2:04am

Thu Sep 23, 1:04am

Thu Sep 23, 12:04am

Wed Sep 22, 11:04pm

Wed Sep 22, 10:04pm

Wed Sep 22, 9:04pm

Wed Sep 22, 8:04pm

Wed Sep 22, 7:04pm

Wed Sep 22, 6:04pm

Wed Sep 22, 5:04pm

Wed Sep 22, 4:04pm

Wed Sep 22, 3:04pm

Wed Sep 22, 2:04pm

Wed Sep 22, 1:04pm

Wed Sep 22, 12:05pm

Wed Sep 22, 11:04am

Wed Sep 22, 10:04am

Wed Sep 22, 9:04am

Wed Sep 22, 8:04am

Wed Sep 22, 7:04am

Wed Sep 22, 5:04am

Wed Sep 22, 4:04am

Wed Sep 22, 3:04am

Wed Sep 22, 2:04am

Wed Sep 22, 1:04am

Wed Sep 22, 12:04am

Tue Sep 21, 11:04pm

Tue Sep 21, 10:04pm

Tue Sep 21, 9:04pm

Tue Sep 21, 8:04pm

Tue Sep 21, 7:04pm

Tue Sep 21, 6:04pm

Tue Sep 21, 5:04pm

Tue Sep 21, 4:04pm

Tue Sep 21, 3:04pm

Tue Sep 21, 2:04pm

Tue Sep 21, 1:04pm

Tue Sep 21, 12:04pm

Tue Sep 21, 11:04am

Tue Sep 21, 10:04am

Tue Sep 21, 9:04am

Tue Sep 21, 8:04am

Tue Sep 21, 7:04am

Tue Sep 21, 6:04am

Tue Sep 21, 5:04am

Tue Sep 21, 4:04am

Tue Sep 21, 3:04am

Tue Sep 21, 2:04am

Tue Sep 21, 1:04am

Tue Sep 21, 12:04am

Mon Sep 20, 11:04pm

Mon Sep 20, 10:04pm

Mon Sep 20, 9:04pm

Mon Sep 20, 8:04pm

Mon Sep 20, 7:04pm

Mon Sep 20, 6:04pm

Mon Sep 20, 5:04pm

Mon Sep 20, 4:04pm

Mon Sep 20, 3:04pm

Mon Sep 20, 2:04pm

Mon Sep 20, 1:04pm

Mon Sep 20, 12:04pm

Mon Sep 20, 11:04am

Mon Sep 20, 10:04am

Mon Sep 20, 9:04am

Mon Sep 20, 7:04am

Mon Sep 20, 6:04am

Mon Sep 20, 5:04am

Mon Sep 20, 4:04am

Mon Sep 20, 3:04am

Mon Sep 20, 2:04am

Mon Sep 20, 1:04am

Mon Sep 20, 12:04am

Sun Sep 19, 11:04pm

Sun Sep 19, 10:04pm

Sun Sep 19, 9:04pm

Sun Sep 19, 8:04pm

Sun Sep 19, 7:04pm

Sun Sep 19, 6:04pm

Sun Sep 19, 5:04pm

Sun Sep 19, 4:04pm

Sun Sep 19, 3:04pm

Sun Sep 19, 2:05pm

Sun Sep 19, 1:04pm

Sun Sep 19, 12:04pm

Sun Sep 19, 11:04am

Sun Sep 19, 10:05am

Sun Sep 19, 9:04am

Sun Sep 19, 8:04am

Sun Sep 19, 7:04am

Sun Sep 19, 6:04am

Sun Sep 19, 5:04am

Sun Sep 19, 4:04am

Sun Sep 19, 3:04am

Sun Sep 19, 2:04am

Sun Sep 19, 1:04am

Sun Sep 19, 12:04am

Sat Sep 18, 11:05pm

Sat Sep 18, 10:04pm

Sat Sep 18, 9:04pm

Sat Sep 18, 8:04pm

Sat Sep 18, 7:04pm

Sat Sep 18, 6:04pm

Sat Sep 18, 5:04pm

Sat Sep 18, 4:04pm

Sat Sep 18, 3:04pm

Sat Sep 18, 2:04pm

Sat Sep 18, 1:04pm

Sat Sep 18, 12:04pm

Sat Sep 18, 11:04am

Sat Sep 18, 10:04am

Sat Sep 18, 9:04am

Sat Sep 18, 8:04am

Sat Sep 18, 7:04am

Sat Sep 18, 6:04am

Sat Sep 18, 5:04am

Sat Sep 18, 4:04am

Sat Sep 18, 3:04am

Sat Sep 18, 2:04am

Sat Sep 18, 1:04am

Sat Sep 18, 12:04am

Fri Sep 17, 11:04pm

Fri Sep 17, 10:04pm

Fri Sep 17, 9:04pm

Fri Sep 17, 8:04pm

Fri Sep 17, 7:04pm

Fri Sep 17, 6:04pm

Fri Sep 17, 5:04pm

Fri Sep 17, 4:04pm

Fri Sep 17, 3:04pm

Fri Sep 17, 2:04pm

Fri Sep 17, 1:04pm

Fri Sep 17, 12:05pm

Fri Sep 17, 11:04am

Fri Sep 17, 10:04am

Fri Sep 17, 9:04am

Fri Sep 17, 8:04am

Fri Sep 17, 7:04am

Fri Sep 17, 6:04am

Fri Sep 17, 5:04am

Fri Sep 17, 4:04am

Fri Sep 17, 3:04am

Fri Sep 17, 2:04am

Fri Sep 17, 1:04am

Fri Sep 17, 12:04am

Thu Sep 16, 11:04pm

Thu Sep 16, 10:04pm

Thu Sep 16, 9:04pm

Thu Sep 16, 8:04pm

Thu Sep 16, 7:04pm

Thu Sep 16, 6:04pm

Thu Sep 16, 5:04pm

Thu Sep 16, 4:04pm

Thu Sep 16, 3:04pm

Thu Sep 16, 2:04pm

Thu Sep 16, 1:05pm

Thu Sep 16, 12:04pm

Thu Sep 16, 11:05am

Thu Sep 16, 10:05am

Thu Sep 16, 9:04am

Thu Sep 16, 8:04am

Thu Sep 16, 7:04am

Thu Sep 16, 6:04am

Thu Sep 16, 5:04am

Thu Sep 16, 4:04am

Meta data:

ID: a4f7dcd9-5d02-43d2-a832-7c52f8924e4d
Link: https://api.weather.gov/products/a4f7dcd9-5d02-43d2-a832-7c52f8924e4d